St. Petersburg, FL

6:38 AM EST on November 19, 2017 (GMT -0500)
Whitted

Weather History for KSPG - November, 2011

Change the Weather History Date:

Wednesday, November 2, 2011

  Actual Average Record
Temperature  
Mean Temperature 70 °F -  
Max Temperature 75 °F 80 °F 88 °F (1972)
Min Temperature 64 °F 66 °F 49 °F (1963)
Cooling Degree Days 4    
Growing Degree Days 20 (Base 50)    
Moisture  
Dew Point 61 °F    
Average Humidity 77    
Maximum Humidity 87    
Minimum Humidity 64    
Precipitation  
Precipitation 0.00 in - - ()
Sea Level Pressure  
Sea Level Pressure 30.15 in    
Wind  
Wind Speed 13 mph (ENE)    
Max Wind Speed 17 mph    
Max Gust Speed -    
Visibility 10 miles    
Events      
Averages and records for this station are not official NWS values.
T = Trace of Precipitation, MM = Missing Value Source: NWS Daily Summary

Daily Weather History Graph

Daily Weather History Graph

Search for Another Location

Airport or City:

Trip Planner

Search our weather history database for the weather conditions in past years. The results will help you decide how hot, cold, wet, or windy it might be!

Date:

Astronomy

Nov. 02, 2011 Rise Set
Actual Time 7:41 AM EDT 6:45 PM EDT
Civil Twilight 7:17 AM EDT 7:10 PM EDT
Nautical Twilight 6:50 AM EDT 7:37 PM EDT
Astronomical Twilight 6:22 AM EDT 8:05 PM EDT
Moon 2:01 PM EDT (11/2) 12:31 AM EDT (11/2)
Length of Visible Light 11h 52m
Length of Day
11h 03m
Waxing Crescent, 50% of the Moon is Illuminated
Nov 2
Waxing Crescent
Nov 2
First Quarter
Nov 10
Full
Nov 18
Last Quarter
Nov 25
New

Hourly Weather History & Observations

Time (EDT) Temp. Dew Point Humidity Pressure Visibility Wind Dir Wind Speed Gust Speed Precip Events Conditions
12:53 AM 64.9 °F 59.0 °F 81% 30.16 in 10.0 mi ENE 17.3 mph - N/A   Clear
1:53 AM 64.0 °F 60.1 °F 87% 30.15 in 10.0 mi ENE 16.1 mph - N/A   Clear
2:53 AM 64.0 °F 60.1 °F 87% 30.14 in 10.0 mi ENE 13.8 mph - N/A   Clear
3:53 AM 64.0 °F 59.0 °F 84% 30.13 in 10.0 mi ENE 10.4 mph - N/A   Clear
4:53 AM 64.0 °F 57.9 °F 80% 30.13 in 10.0 mi NE 11.5 mph - N/A   Clear
5:53 AM 64.0 °F 59.0 °F 84% 30.14 in 10.0 mi NE 10.4 mph - N/A   Clear
6:53 AM 64.9 °F 59.0 °F 81% 30.15 in 10.0 mi NE 12.7 mph - N/A   Clear
7:53 AM 64.0 °F 59.0 °F 84% 30.17 in 10.0 mi ENE 15.0 mph - N/A   Clear
8:53 AM 64.0 °F 59.0 °F 84% 30.18 in 10.0 mi ENE 13.8 mph - N/A   Clear
9:53 AM 66.0 °F 60.1 °F 81% 30.19 in 10.0 mi ENE 13.8 mph - N/A   Clear
10:53 AM 68.0 °F 60.1 °F 76% 30.20 in 10.0 mi ENE 13.8 mph - N/A   Clear
11:53 AM 71.1 °F 61.0 °F 70% 30.20 in 10.0 mi East 12.7 mph - N/A   Clear
12:53 PM 73.0 °F 62.1 °F 68% 30.17 in 10.0 mi East 11.5 mph - N/A   Clear
2:53 PM 75.0 °F 64.9 °F 71% 30.12 in 10.0 mi ENE 5.8 mph - N/A   Clear
3:53 PM 75.9 °F 63.0 °F 64% 30.11 in 10.0 mi ENE 6.9 mph - N/A   Clear
4:53 PM 73.9 °F 63.0 °F 68% 30.11 in 10.0 mi East 9.2 mph - N/A   Clear
5:53 PM 73.9 °F 63.0 °F 68% 30.11 in 10.0 mi East 11.5 mph - N/A   Clear
6:53 PM 73.0 °F 64.0 °F 73% 30.12 in 10.0 mi East 10.4 mph - N/A   Clear
7:53 PM 73.0 °F 64.0 °F 73% 30.12 in 10.0 mi East 8.1 mph - N/A   Clear
8:53 PM 72.0 °F 66.0 °F 81% 30.13 in 10.0 mi East 8.1 mph - N/A   Partly Cloudy
9:53 PM 71.1 °F 63.0 °F 75% 30.14 in 10.0 mi East 13.8 mph - N/A   Scattered Clouds
10:53 PM 71.1 °F 64.0 °F 78% 30.15 in 10.0 mi East 12.7 mph - N/A   Clear
11:53 PM 70.0 °F 63.0 °F 78% 30.15 in 10.0 mi East 8.1 mph - N/A   Clear